Location: Prairie Dale
(45.6972°N, 104.5033°W)
Time: 00:36:01
(UTC+00:00)

XW-2A - Visible Passes

Search period start: 29 June 2022 00:00
Search period end: 09 July 2022 00:00
Orbit: 397 x 413 km, 97.2° (Epoch: 28 June)

Date Brightness Start Highest point End Pass type
(mag) Time Alt. Az. Time Alt. Az. Time Alt. Az.
29 Jun ? 04:11:32 10° S 04:14:31 44° W 04:17:31 10° NNW visible
30 Jun ? 03:23:05 10° SE 03:25:55 33° ENE 03:28:46 10° N visible
30 Jun ? 04:56:37 10° WSW 04:57:57 12° W 04:59:18 10° WNW visible
01 Jul ? 04:06:00 10° S 04:09:02 54° W 04:12:06 10° NNW visible
02 Jul ? 04:50:36 10° SW 04:52:22 14° W 04:54:10 10° WNW visible
03 Jul ? 04:00:22 10° S 04:03:25 66° WSW 04:06:32 10° NNW visible
04 Jul ? 04:44:34 10° SW 04:46:40 17° W 04:48:46 10° NW visible
05 Jul ? 03:54:36 10° S 03:57:41 82° W 04:00:48 10° NNW visible
06 Jul ? 04:38:27 10° SW 04:40:48 20° W 04:43:11 10° NW visible
07 Jul ? 03:48:43 10° SSE 03:51:48 81° ENE 03:54:55 10° N visible
08 Jul ? 04:32:15 10° SSW 04:34:49 24° W 04:37:24 10° NW visible
